TimeEDT,TemperatureF,Dew PointF,Humidity,Sea Level PressureIn,VisibilityMPH,Wind Direction,Wind SpeedMPH,Gust SpeedMPH,PrecipitationIn,Events,Conditions,WindDirDegrees,DateUTC
12:52 AM,73.9,69.1,85,30.15,10.0,Calm,Calm,-,N/A,,Overcast,0,2013-07-31 04:52:00
1:52 AM,77.0,66.0,69,30.13,10.0,SE,3.5,-,N/A,,Overcast,140,2013-07-31 05:52:00
3:52 AM,75.9,66.9,74,30.12,10.0,Calm,Calm,-,N/A,,Overcast,0,2013-07-31 07:52:00
4:52 AM,73.0,69.1,87,30.12,10.0,Calm,Calm,-,N/A,,Overcast,0,2013-07-31 08:52:00
5:52 AM,71.1,69.1,93,30.12,10.0,North,5.8,-,N/A,,Overcast,360,2013-07-31 09:52:00
6:52 AM,72.0,70.0,93,30.14,10.0,Calm,Calm,-,0.00,Rain,Light Rain,0,2013-07-31 10:52:00
7:52 AM,73.0,70.0,90,30.15,10.0,Calm,Calm,-,0.00,,Overcast,0,2013-07-31 11:52:00
8:52 AM,75.0,69.1,82,30.15,10.0,Calm,Calm,-,0.01,Rain,Light Rain,0,2013-07-31 12:52:00
9:52 AM,77.0,69.1,76,30.14,10.0,Variable,3.5,-,0.00,Rain,Light Rain,0,2013-07-31 13:52:00
10:52 AM,79.0,69.1,72,30.14,10.0,East,3.5,-,0.00,,Overcast,90,2013-07-31 14:52:00
11:52 AM,80.1,69.1,69,30.12,10.0,SSE,5.8,-,N/A,,Overcast,150,2013-07-31 15:52:00
12:52 PM,81.0,69.1,67,30.11,10.0,SSE,4.6,-,N/A,,Overcast,160,2013-07-31 16:52:00
1:52 PM,82.0,69.1,65,30.08,10.0,SE,8.1,-,N/A,,Overcast,130,2013-07-31 17:52:00
2:52 PM,82.0,70.0,67,30.05,10.0,South,8.1,-,N/A,,Overcast,170,2013-07-31 18:52:00
3:52 PM,82.0,69.1,65,30.02,10.0,SSE,12.7,-,N/A,,Overcast,160,2013-07-31 19:52:00
4:52 PM,72.0,69.1,91,30.03,10.0,SSE,9.2,-,0.09,,Overcast,160,2013-07-31 20:52:00
5:52 PM,73.0,69.1,87,30.03,10.0,WSW,8.1,-,0.00,,Overcast,240,2013-07-31 21:52:00
6:42 PM,73.4,71.6,94,30.03,10.0,Calm,Calm,-,0.00,,Overcast,0,2013-07-31 22:42:00
6:52 PM,73.0,70.0,90,30.01,10.0,South,4.6,-,0.00,,Overcast,170,2013-07-31 22:52:00
7:52 PM,73.0,70.0,90,30.01,10.0,South,5.8,-,N/A,,Overcast,170,2013-07-31 23:52:00
8:52 PM,73.0,70.0,90,30.02,10.0,SSE,10.4,-,N/A,,Overcast,160,2013-08-01 00:52:00
9:52 PM,73.0,71.1,93,30.03,10.0,South,11.5,-,N/A,,Overcast,170,2013-08-01 01:52:00
9:59 PM,73.4,71.6,94,30.05,10.0,South,10.4,-,N/A,,Overcast,170,2013-08-01 01:59:00
10:52 PM,73.0,71.1,93,30.01,10.0,South,9.2,-,N/A,,Overcast,180,2013-08-01 02:52:00
11:52 PM,72.0,71.1,97,30.00,10.0,South,9.2,-,N/A,,Overcast,180,2013-08-01 03:52:00